Tracking 22438 objects as of 24-Feb-2021
HD Live streaming from Space Station
objects crossing your sky now

CZ-4 DEB

Track CZ-4 DEB now!
10-day predictions


NORAD ID: 20895
Int'l Code: 1990-081BF
Perigee: 738.7 km
Apogee: 777.1 km
Inclination: 98.5 °
Period: 99.8 minutes
Semi major axis: 7128 km
RCS: 0.0195 m2 (small)
Launch date: September 3, 1990
Source: People's Republic of China (PRC)
Launch site: Taiyaun Space Center, China (TSC)

Note: This is SATELLITE DEBRIS
aabbcc
Your satellite tracking list
Your tracking list is empty




NASA's NSSDC Master Catalog

Two Line Element Set (TLE):
1 20895U 90081BF  21055.04113660  .00000862  00000-0  27325-3 0  9994
2 20895  98.4889  87.6899 0026934 320.0363  61.1878 14.42348518584288
Source of the keplerian elements: AFSPC